DW9104 Dudley UK current weather conditions

sailwx.info

Wind from 337 at 0 knots gusting 5

Air temperature 18.9° C
Dewpoint 7.6° C

Last reported at 2019-Jun-20 17:09 UTC.
Time now 2019-Jun-20 17:50 UTC

Location: N 52°32' W 002°06'.
View on Google Maps.

See reports from other nearby stations

  
Tides and Currents Weather Stations Pressure Air Temp Water Temp Dewpoint Dewpoint Depression Visibility Wind Speed Wind Dir Waves Ship Positions
date/time (UTC)wind fromknots sea level pressurealtimeterstation pressurevisibilityair tempwater tempwave heightnotes
2019-Jun-20 17:09 337 0 gusting 5 18.9
2019-Jun-20 17:04 350 0 gusting 5 18.9
2019-Jun-20 16:39 256 17.2
2019-Jun-20 16:34 359 17.2
2019-Jun-20 16:09 218 0 gusting 5 17.2
2019-Jun-20 16:04 326 17.2
2019-Jun-20 15:39 087 17.2
2019-Jun-20 15:34 17.8
2019-Jun-20 15:09 299 0 gusting 2 18.9
2019-Jun-20 15:04 310 1 gusting 6 18.3
2019-Jun-20 14:39 319 0 gusting 2 18.9
2019-Jun-20 14:34 008 17.8
2019-Jun-20 14:09 323 0 gusting 4 18.3
2019-Jun-20 14:04 003 0 gusting 5 18.3
2019-Jun-20 13:39 351 0 gusting 5 16.7
2019-Jun-20 13:34 340 0 gusting 5 17.2
2019-Jun-20 13:09 291 16.1
2019-Jun-20 13:04 344 0 gusting 4 15.6
2019-Jun-20 12:39 002 14.4
2019-Jun-20 12:34 167 13.9
2019-Jun-20 12:09 354 0 gusting 6 12.8
2019-Jun-20 12:04 336 13.3
2019-Jun-20 11:39 008 16.7
2019-Jun-20 11:34 024 0 gusting 4 16.1
2019-Jun-20 11:09 246 13.9
2019-Jun-20 11:04 003 0 gusting 5 13.9
2019-Jun-20 10:39 355 0 gusting 2 13.9
2019-Jun-20 10:34 342 0 gusting 10 14.4
2019-Jun-20 10:09 334 1 gusting 5 17.2
2019-Jun-20 10:04 002 17.8
2019-Jun-20 09:39 316 16.7
2019-Jun-20 09:34 228 16.7
2019-Jun-20 09:09 334 15.6
2019-Jun-20 09:04 020 15.6
2019-Jun-20 08:39 238 14.4
2019-Jun-20 08:34 323 0 gusting 6 14.4
2019-Jun-20 08:09 320 15.6
2019-Jun-20 08:04 011 15.6
2019-Jun-20 07:39 238 14.4
2019-Jun-20 07:34 091 13.9
2019-Jun-20 07:09 340 13.3
2019-Jun-20 07:04 230 12.8
2019-Jun-20 06:39 219 11.7
2019-Jun-20 06:34 219 11.7
2019-Jun-20 06:09 245 11.1
2019-Jun-20 06:04 192 10.6
2019-Jun-20 05:39 210 10.0
2019-Jun-20 05:34 245 10.0
2019-Jun-20 05:09 025 9.4
2019-Jun-20 05:04 026 9.4
2019-Jun-20 04:39 027 8.9
2019-Jun-20 04:34 026 8.9
2019-Jun-20 04:09 087 8.3
2019-Jun-20 04:04 025 8.3
2019-Jun-20 03:39 025 8.3
2019-Jun-20 03:34 025 8.3
2019-Jun-20 03:09 025 8.9
2019-Jun-20 03:04 025 8.9
2019-Jun-20 02:39 016 8.9
2019-Jun-20 02:34 016 8.9
2019-Jun-20 02:09 041 8.9
2019-Jun-20 02:04 039 8.9
2019-Jun-20 01:39 039 9.4
2019-Jun-20 01:34 039 9.4
2019-Jun-20 01:09 025 10.0
2019-Jun-20 01:04 025 10.0
2019-Jun-20 00:39 025 9.4
2019-Jun-20 00:34 025 9.4
2019-Jun-20 00:09 026 10.0
2019-Jun-20 00:04 010 10.0
2019-Jun-19 23:39 010 10.6
2019-Jun-19 23:34 010 11.1
2019-Jun-19 23:09 034 11.7
2019-Jun-19 23:04 035 11.7
2019-Jun-19 22:39 039 12.2
2019-Jun-19 22:34 024 11.7
2019-Jun-19 22:09 034 11.7
2019-Jun-19 22:04 034 11.7
2019-Jun-19 21:39 034 11.7
2019-Jun-19 21:34 034 12.2
2019-Jun-19 21:09 034 13.3
2019-Jun-19 21:04 034 13.3
2019-Jun-19 20:39 034 15.0
2019-Jun-19 20:34 034 15.0
2019-Jun-19 20:09 034 16.7
2019-Jun-19 20:04 034 16.7
2019-Jun-19 19:39 048 16.1
2019-Jun-19 19:34 022 16.7
2019-Jun-19 19:09 340 16.1
2019-Jun-19 19:04 358 16.1
2019-Jun-19 18:39 025 0 gusting 2 16.7
2019-Jun-19 18:34 354 0 gusting 5 16.7
2019-Jun-19 18:09 329 0 gusting 2 17.8
2019-Jun-19 18:04 024 0 gusting 5 18.3
2019-Jun-19 17:39 308 20.0
2019-Jun-19 17:34 345 20.0
2019-Jun-19 17:09 352 20.0
2019-Jun-19 17:04 027 20.6
2019-Jun-19 16:39 018 19.4
2019-Jun-19 16:34 027 18.9
2019-Jun-19 16:09 031 18.3
2019-Jun-19 16:04 008 17.8
2019-Jun-19 15:39 006 17.8
2019-Jun-19 15:34 016 17.8
2019-Jun-19 15:09 352 17.8
2019-Jun-19 15:04 021 17.8
2019-Jun-19 14:39 18.3
2019-Jun-19 14:34 023 2 gusting 6 18.9
2019-Jun-19 14:09 019 0 gusting 2 19.4
2019-Jun-19 14:04 022 18.9
2019-Jun-19 13:39 055 0 gusting 2 18.9
2019-Jun-19 13:34 004 0 gusting 4 18.9
2019-Jun-19 13:09 091 1 gusting 2 19.4
2019-Jun-19 13:04 035 19.4
2019-Jun-19 12:39 025 0 gusting 2 19.4
2019-Jun-19 12:34 028 0 gusting 5 19.4
2019-Jun-19 12:09 013 1 gusting 2 18.3
2019-Jun-19 12:04 018 0 gusting 4 18.3
2019-Jun-19 11:39 008 1 gusting 4 18.3
2019-Jun-19 11:34 351 18.3
2019-Jun-19 11:09 309 17.8
2019-Jun-19 11:04 041 0 gusting 2 17.8
2019-Jun-19 10:39 034 17.2
2019-Jun-19 10:34 066 0 gusting 6 17.2
2019-Jun-19 10:09 333 0 gusting 2 16.1
2019-Jun-19 10:04 030 0 gusting 2 16.1
2019-Jun-19 09:39 018 1 gusting 2 15.6
2019-Jun-19 09:34 011 0 gusting 2 15.6
2019-Jun-19 09:09 022 13.9
2019-Jun-19 09:04 356 0 gusting 4 13.9
2019-Jun-19 08:39 058 0 gusting 2 13.3
2019-Jun-19 08:34 020 0 gusting 4 13.3
2019-Jun-19 08:09 358 12.8
2019-Jun-19 08:04 001 0 gusting 2 12.8
2019-Jun-19 07:39 350 13.3
2019-Jun-19 07:34 056 13.3
2019-Jun-19 07:09 008 13.3
2019-Jun-19 07:04 358 13.3
2019-Jun-19 06:39 026 13.3
2019-Jun-19 06:34 024 12.8
2019-Jun-19 06:09 014 0 gusting 2 13.3
2019-Jun-19 06:04 13.3
2019-Jun-19 05:39 040 0 gusting 2 12.8
2019-Jun-19 05:34 001 12.8
2019-Jun-19 05:09 013 12.8
2019-Jun-19 05:04 014 12.8
2019-Jun-19 04:39 220 12.8
2019-Jun-19 04:34 220 12.8
2019-Jun-19 04:09 212 12.8
2019-Jun-19 04:04 212 12.8
2019-Jun-19 03:39 212 12.8
2019-Jun-19 03:34 212 12.8
2019-Jun-19 03:09 212 12.8
2019-Jun-19 03:04 212 12.8
2019-Jun-19 02:39 212 12.8
2019-Jun-19 02:34 212 12.8
2019-Jun-19 02:09 212 12.8
2019-Jun-19 02:04 212 12.8
2019-Jun-19 01:39 212 12.8
2019-Jun-19 01:34 212 12.8
2019-Jun-19 01:09 212 12.8
2019-Jun-19 01:04 212 12.8
2019-Jun-19 00:39 212 12.8
2019-Jun-19 00:34 212 12.8
2019-Jun-19 00:09 212 12.8
2019-Jun-19 00:04 212 12.8
2019-Jun-18 23:39 212 12.8
2019-Jun-18 23:34 212 12.8
2019-Jun-18 23:09 212 12.8
2019-Jun-18 23:04 212 12.8
2019-Jun-18 22:39 212 12.8
2019-Jun-18 22:34 212 12.8
2019-Jun-18 22:09 212 12.8
2019-Jun-18 22:04 212 12.8
2019-Jun-18 21:39 212 13.3
2019-Jun-18 21:09 212 13.3
2019-Jun-18 21:04 212 13.3
2019-Jun-18 20:39 212 13.3
2019-Jun-18 20:34 212 13.3
2019-Jun-18 20:09 211 13.9
2019-Jun-18 20:04 211 13.9
2019-Jun-18 19:39 222 13.9
2019-Jun-18 19:34 212 13.9
2019-Jun-18 19:09 211 14.4
2019-Jun-18 19:04 211 14.4
2019-Jun-18 18:39 211 14.4
2019-Jun-18 18:34 211 14.4
2019-Jun-18 18:09 208 15.0
2019-Jun-18 18:04 207 15.0
2019-Jun-18 17:39 211 15.0
2019-Jun-18 17:34 211 15.0
2019-Jun-18 17:09 219 15.6
2019-Jun-18 17:04 219 15.6